User: anonymous   Login
Location: Radomski Observatory
(40.2854°N, 79.5145°W)
Time: 15:23:27
(UTC-05:00)
Language:

Cosmos 1072 Rocket - Orbit

View from above orbital plane
View from above orbital plane
View from above satellite
View from above satellite

Ground track
Ground track

The orbit data is extracted from the following two-line orbital elements,

1 11239U 79003B   14331.82296536  .00000079  00000-0  64850-4 0  3984
2 11239 082.9403 060.5986 0042173 117.0009 017.3198 13.75753030799652
Epoch (UTC): 27 November 2014 19:45:04
Eccentricity: 0.0042173
inclination: 82.9403°
perigee height: 948 km
apogee height: 1010 km
right ascension of ascending node: 60.5986°
argument of perigee: 117.0009°
revolutions per day: 13.75753030
mean anomaly at epoch: 17.3198°
orbit number at epoch: 79965

The dashed part of the orbit path shows where the satellite is in the earth's shadow,  

DLR